Weather in Golovino

Russia / Vladimir Oblast     55°58′02″N   38°46′34″E
temp.,
°C
wind,
m/s
gust,
m/s
humid.,
%
clouds,
%
prec.,
mm/h
press.,
hPa
HPBL,
m
27 february, sat
sat2700:00+1wnw6139399 0.1 9981012
03:00+1wnw7149799 0.4 10001036
06:00−8nnw61385100 0.6 1002744
09:00−10nnw5118699 0.6 1006548
12:00−8nnw488435 0.0 1008507
15:00−5nnw488320 0.0 1010554
18:00−8nnw379244 0.0 1011247
21:00−10nnw279556 0.0 1013210
28 february, sun
sun2800:00−11nnw239683 0.0 101460
03:00−12nw229658 0.0 101533
06:00−10nnw129759 0.1 101591
09:00−8nw019480 0.4 1015107
12:00−3nw138898 0.2 1015405
15:00−1nnw248899 0.3 1016512
18:00−3nnw2295100 0.1 101759
21:00−4n1294100 0.1 101927
1 march, mon
mon100:00−6nnw129593 0.0 102021
03:00−7wnw119476 0.0 102121
06:00−7wsw119599 0.0 102221
09:00−5sw119795 0.1 102273
12:00−2wsw249080 0.0 1022441
15:000wsw369075 0.0 1022585
18:00−1wsw3895100 0.1 1019431
21:00−1wsw51195100 0.1 1017500
2 march, tue
tue200:00+1w51192100 0.1 1014678
03:00+1w51292100 0.1 1011816
06:00+1w61397100 0.2 1008781
09:000wnw51197100 0.4 1008800
12:00+1nw61291100 0.4 10081115
15:00+1nw6118799 0.7 10081237
18:00−1nw51294100 0.4 1009824
21:00−1nw5129298 0.6 1011876
3 march, wed
wed300:00−2nw6138896 0.1 1012917
03:00−4nnw5139094 0.1 10131139
06:00−4nnw5138998 0.1 1015820
09:00−3nnw5108697 0.1 1017835
12:00−1nw598396 0.1 1017965
15:00−1nw598398 0.2 10181062
18:00−2nw4991100 0.1 1018599
21:00−3wnw399395 0.2 1018339